FENGYUN 1C DEB

Satellite information

Favourite Embed

Satellite Type and Status

DEBRISIN ORBIT

Key statistics

Satellite FENGYUN 1C DEB at a glance.

Uptime

9658

Days in orbit

Revolutions

≈ 14.2

Per day

Orbit

SSO

Sun Synchronous Orbit

Inclination

98.7

Latest

Satellite identification and parameters

Extended collection of information and parameters for FENGYUN 1C DEB.

Object identification

Identified? True

Debris? True

Object name: FENGYUN 1C DEB

International designator: 1999-025EWJ

Object number (NORAD): 39541

Object ID (CCSDS): 39541

Country: PEOPLES REPUBLIC OF CHINA (PRC)

Current information (Y/N): Y

RCS size: SMALL

Orbital parameters

Period: 101.397 minutes

Inclination: 98.6872 deg

SMA: 7202.945 km

Apoapsis: 875.791 km

Periapsis: 773.83 km

RAAN: 329.0618 deg

Eccentricy: 0.00707775

Argument of periapsis: 247.527 deg

Mean anomaly: 111.8402 deg

Mean motion: 14.20161027 rev/day

Mean motion (dot): 0.00001502 rev/day2

B* drag term: 0.0007065491 1/REarth

Two-line elements (TLE)

Creation date: Oct. 13, 2025, 2:18 a.m.

Reference frame: TEME

Reference center: EARTH

Epoch: Oct. 12, 2025, 8:07 p.m. UTC

TLE line 0: 0 FENGYUN 1C DEB

TLE line 1: 1 39541U 99025EWJ 25285.83854501 .00001502 00000-0 70655-3 0 9997

TLE line 2: 2 39541 98.6872 329.0618 0070778 247.5270 111.8402 14.20161027581385

Live tracking on map

Real-time ground track for satellite FENGYUN 1C DEB.

In-orbit conjunctions

A list of the most updated potential collisions computed for object FENGYUN 1C DEB.

Target Orbit TCA Probability of collision Miss distance Type
CZ-6A DEB LEO 2025-04-23 11:49:20 0.0001070679 83.0 (m) DEBRIS
COSMOS 2251 DEB LEO 2024-11-09 08:44:53 0.0006211155 541.0 (m) DEBRIS

Associated space launch

Chinese polar orbiting meteorological satellite

FENGYUN 1C DEB was lifted into orbit during the mission ‘Long March 4B | Feng Yun 1C’, on board a Long March 4B space rocket.

The launch took place on May 10, 1999, 1:33 a.m. from Launch Complex 7.

For more information about the launch, click the button.

Launch to space Long March 4B | Feng Yun 1C
Long March 4B | Feng Yun 1C

Agency: N/A

Status: Launch Successful

Launch date: May 10, 1999, 1:33 a.m. UTC

Rocket: Long March 4B

Launch pad: Launch Complex 7

Location: Taiyuan Satellite Launch Center, People's Republic of China

...

Latest news about this satellite

There are no fresh news available about this satellite. Check back as we update our databases every day.


Newsletter sign-up

Weekly statistics, charts and insights to help you stay on top of the space industry.